Pittsburg, TX

8:27 PM CST on January 17, 2017 (GMT -0600)
Mount Pleasant

Weather History for KOSA - October, 2012

Change the Weather History Date:

Sunday, October 14, 2012

  Actual Average (KGGG) Record (KGGG)
Temperature  
Mean Temperature 70 °F -  
Max Temperature 80 °F 75 °F 96 °F (1938)
Min Temperature 59 °F 53 °F 39 °F (1969)
Cooling Degree Days 5    
Growing Degree Days 20 (Base 50)    
Moisture  
Dew Point 60 °F    
Average Humidity 73    
Maximum Humidity 100    
Minimum Humidity 39    
Precipitation  
Precipitation 1.15 in - - ()
Sea Level Pressure  
Sea Level Pressure 30.01 in    
Wind  
Wind Speed 10 mph (WSW)    
Max Wind Speed 28 mph    
Max Gust Speed 34 mph    
Visibility 9 miles    
Events      
Averages and records for this station are not official NWS values.
T = Trace of Precipitation, MM = Missing Value Source: NWS Daily Summary

Daily Weather History Graph

Daily Weather History Graph

Search for Another Location

Airport or City:

Trip Planner

Search our weather history database for the weather conditions in past years. The results will help you decide how hot, cold, wet, or windy it might be!

Date:

Astronomy

Oct. 14, 2012 Rise Set
Actual Time 7:23 AM CDT 6:47 PM CDT
Civil Twilight 6:58 AM CDT 7:11 PM CDT
Nautical Twilight 6:30 AM CDT 7:40 PM CDT
Astronomical Twilight 6:01 AM CDT 8:09 PM CDT
Moon 6:24 AM CDT (10/14) 6:08 PM CDT (10/14)
Length of Visible Light 12h 13m
Length of Day
11h 23m
Waning Crescent, 1% of the Moon is Illuminated
Oct 14
Waning Crescent
Oct 15
New
Oct 21
First Quarter
Oct 29
Full
Nov 6
Last Quarter

Hourly Weather History & Observations

Time (CDT) Temp. Heat Index Dew Point Humidity Pressure Visibility Wind Dir Wind Speed Gust Speed Precip Events Conditions
12:15 AM 75.2 °F - 68.0 °F 78% 29.92 in 10.0 mi South 11.5 mph - N/A   Mostly Cloudy
12:35 AM 75.2 °F - 68.0 °F 78% 29.92 in 10.0 mi South 12.7 mph 19.6 mph N/A   Mostly Cloudy
12:55 AM 75.2 °F - 68.0 °F 78% 29.93 in 10.0 mi South 12.7 mph 23.0 mph N/A   Mostly Cloudy
1:15 AM 75.2 °F - 69.8 °F 83% 29.92 in 10.0 mi South 12.7 mph 19.6 mph N/A   Overcast
1:35 AM 75.2 °F - 69.8 °F 83% 29.92 in 10.0 mi South 10.4 mph 17.3 mph N/A   Mostly Cloudy
1:55 AM 68.0 °F - 62.6 °F 83% 29.95 in 10.0 mi NW 20.7 mph 27.6 mph N/A   Mostly Cloudy
2:15 AM 66.2 °F - 62.6 °F 88% 29.96 in 4.0 mi NW 27.6 mph 34.5 mph 0.12 in   Mostly Cloudy
2:35 AM 64.4 °F - 62.6 °F 94% 29.98 in 1.5 mi West 10.4 mph 31.1 mph 0.37 in   Overcast
2:55 AM 62.6 °F - 62.6 °F 100% 29.96 in 2.0 mi West 12.7 mph 25.3 mph 0.66 in   Overcast
3:15 AM 62.6 °F - 60.8 °F 94% 29.97 in 4.0 mi WSW 13.8 mph 20.7 mph 0.08 in   Overcast
3:35 AM 62.6 °F - 60.8 °F 94% 29.95 in 2.0 mi SSW 10.4 mph 25.3 mph 0.40 in   Overcast
3:55 AM 60.8 °F - 60.8 °F 100% 29.93 in 7.0 mi South 10.4 mph - 0.48 in   Overcast
4:15 AM 62.6 °F - 60.8 °F 94% 29.90 in 10.0 mi SSE 8.1 mph - 0.01 in   Scattered Clouds
4:35 AM 62.6 °F - 62.6 °F 100% 29.91 in 10.0 mi SSE 6.9 mph - 0.01 in   Scattered Clouds
4:55 AM 62.6 °F - 62.6 °F 100% 29.95 in 10.0 mi SSE 8.1 mph - 0.01 in   Scattered Clouds
5:15 AM 62.6 °F - 62.6 °F 100% 29.94 in 10.0 mi SSE 8.1 mph - N/A   Scattered Clouds
5:35 AM 64.4 °F - 62.6 °F 94% 29.94 in 10.0 mi South 6.9 mph - N/A   Clear
6:15 AM 64.4 °F - 62.6 °F 94% 29.95 in 10.0 mi SSW 8.1 mph - N/A   Clear
6:35 AM 64.4 °F - 64.4 °F 100% 29.96 in 10.0 mi SSW 6.9 mph - N/A   Scattered Clouds
6:55 AM 64.4 °F - 64.4 °F 100% 29.97 in 10.0 mi SW 5.8 mph - N/A   Scattered Clouds
7:15 AM 66.2 °F - 64.4 °F 94% 29.97 in 10.0 mi SSW 6.9 mph - N/A   Clear
7:35 AM 66.2 °F - 64.4 °F 94% 29.97 in 10.0 mi SW 8.1 mph - N/A   Clear
7:55 AM 66.2 °F - 64.4 °F 94% 29.97 in 10.0 mi SW 8.1 mph - N/A   Clear
8:15 AM 66.2 °F - 64.4 °F 94% 29.97 in 10.0 mi SSW 5.8 mph - N/A   Clear
8:35 AM 68.0 °F - 66.2 °F 94% 29.97 in 10.0 mi SSW 5.8 mph - N/A   Clear
8:55 AM 68.0 °F - 68.0 °F 100% 29.99 in 10.0 mi WSW 4.6 mph - N/A   Clear
9:15 AM 68.0 °F - 68.0 °F 100% 30.01 in 10.0 mi SW 3.5 mph - N/A   Clear
9:35 AM 69.8 °F - 68.0 °F 94% 30.01 in 10.0 mi SSW 4.6 mph - N/A   Clear
9:55 AM 69.8 °F - 68.0 °F 94% 30.02 in 10.0 mi West 4.6 mph - N/A   Clear
10:15 AM 71.6 °F - 64.4 °F 78% 30.03 in 10.0 mi WSW 5.8 mph - N/A   Clear
10:35 AM 71.6 °F - 64.4 °F 78% 30.04 in 10.0 mi SSW 6.9 mph - N/A   Clear
10:55 AM 73.4 °F - 62.6 °F 69% 30.04 in 10.0 mi SW 5.8 mph - N/A   Clear
11:15 AM 73.4 °F - 62.6 °F 69% 30.04 in 10.0 mi SW 8.1 mph - N/A   Clear
11:35 AM 73.4 °F - 62.6 °F 69% 30.04 in 10.0 mi SW 8.1 mph - N/A   Clear
11:55 AM 75.2 °F - 62.6 °F 65% 30.05 in 10.0 mi SW 9.2 mph - N/A   Clear
12:15 PM 77.0 °F - 60.8 °F 57% 30.05 in 10.0 mi WSW 10.4 mph - N/A   Clear
12:35 PM 77.0 °F - 60.8 °F 57% 30.05 in 10.0 mi SW 9.2 mph - N/A   Clear
12:55 PM 78.8 °F - 59.0 °F 51% 30.05 in 10.0 mi WSW 10.4 mph - N/A   Clear
1:15 PM 78.8 °F - 57.2 °F 47% 30.04 in 10.0 mi WSW 8.1 mph - N/A   Clear
1:35 PM 80.6 °F 80.3 °F 53.6 °F 39% 30.04 in 10.0 mi WSW 16.1 mph - N/A   Clear
1:55 PM 80.6 °F 80.3 °F 53.6 °F 39% 30.03 in 10.0 mi WSW 12.7 mph - N/A   Clear
2:15 PM 80.6 °F 80.5 °F 55.4 °F 42% 30.02 in 10.0 mi West 11.5 mph 18.4 mph N/A   Clear
2:35 PM 80.6 °F 80.5 °F 55.4 °F 42% 30.02 in 10.0 mi WNW 13.8 mph - N/A   Clear
2:55 PM 80.6 °F 80.5 °F 55.4 °F 42% 30.02 in 10.0 mi WNW 8.1 mph - N/A   Clear
3:15 PM 78.8 °F - 53.6 °F 42% 30.02 in 10.0 mi NW 11.5 mph - N/A   Clear
3:35 PM 80.6 °F 80.5 °F 55.4 °F 42% 30.02 in 10.0 mi WNW 12.7 mph 17.3 mph N/A   Clear
3:55 PM 78.8 °F - 53.6 °F 42% 30.02 in 10.0 mi WNW 11.5 mph 18.4 mph N/A   Clear
4:15 PM 80.6 °F 80.5 °F 55.4 °F 42% 30.02 in 10.0 mi WNW 10.4 mph - N/A   Clear
4:35 PM 80.6 °F 80.5 °F 55.4 °F 42% 30.02 in 10.0 mi West 10.4 mph - N/A   Clear
4:55 PM 78.8 °F - 53.6 °F 42% 30.02 in 10.0 mi West 9.2 mph - N/A   Clear
5:15 PM 78.8 °F - 55.4 °F 44% 30.02 in 10.0 mi WNW 8.1 mph - N/A   Clear
5:35 PM 78.8 °F - 53.6 °F 42% 30.02 in 10.0 mi WNW 10.4 mph - N/A   Clear
5:55 PM 78.8 °F - 55.4 °F 44% 30.02 in 10.0 mi NW 8.1 mph - N/A   Clear
6:15 PM 77.0 °F - 55.4 °F 47% 30.02 in 10.0 mi WNW 5.8 mph - N/A   Clear
6:35 PM 75.2 °F - 55.4 °F 50% 30.02 in 10.0 mi WNW 4.6 mph - N/A   Clear
6:55 PM 73.4 °F - 55.4 °F 53% 30.02 in 10.0 mi WNW 3.5 mph - N/A   Clear
7:15 PM 69.8 °F - 59.0 °F 68% 30.03 in 10.0 mi West 3.5 mph - N/A   Clear
7:35 PM 69.8 °F - 59.0 °F 68% 30.03 in 10.0 mi West 3.5 mph - N/A   Clear
7:55 PM 69.8 °F - 57.2 °F 64% 30.03 in 10.0 mi WNW 3.5 mph - N/A   Clear
8:15 PM 64.4 °F - 59.0 °F 83% 30.04 in 10.0 mi Calm Calm - N/A   Clear
8:35 PM 64.4 °F - 57.2 °F 77% 30.05 in 10.0 mi WNW 4.6 mph - N/A   Clear
8:55 PM 64.4 °F - 57.2 °F 77% 30.05 in 10.0 mi NW 4.6 mph - N/A   Clear
9:15 PM 66.2 °F - 55.4 °F 68% 30.06 in 10.0 mi NW 5.8 mph - N/A   Clear
9:35 PM 66.2 °F - 55.4 °F 68% 30.06 in 10.0 mi WNW 4.6 mph - N/A   Clear
9:55 PM 62.6 °F - 55.4 °F 77% 30.07 in 10.0 mi NW 5.8 mph - N/A   Clear
10:15 PM 64.4 °F - 55.4 °F 73% 30.08 in 10.0 mi NW 3.5 mph - N/A   Clear
10:35 PM 62.6 °F - 55.4 °F 77% 30.09 in 10.0 mi Calm Calm - N/A   Clear
10:55 PM 64.4 °F - 55.4 °F 73% 30.09 in 10.0 mi NW 3.5 mph - N/A   Clear
11:15 PM 62.6 °F - 55.4 °F 77% 30.09 in 10.0 mi NNW 3.5 mph - N/A   Clear
11:35 PM 59.0 °F - 55.4 °F 88% 30.09 in 10.0 mi Calm Calm - N/A   Clear